CAPE
271 141 372 879 1258 1548 1667 1410 1292 1557 2088 1999 1787 1508 1247 1332 2202 1548 1312 1284 1274 1096 1063 1196 1298 1268 1607 1814 1989 1767 1778 1928 1954 2180 2120 2084 1971 1592 1454 1089 1173 1072 1625
141 371 717 1172 1421 1519 1646 1648 1427 1601 1779 1778 1560 1471 1842 2082 1600 1584 1669 1564 1630 1451 969 1316 1171 1009 1323 1282 1325 1423 1796 1963 1794 2189 1906 1883 1874 1880 1444 1394 1219 1363 1535
360 505 794 1038 1358 1430 1515 1356 1551 1782 1853 1826 1909 1900 1858 1744 1581 1624 1693 1694 1703 1545 1388 1234 1462 1341 966 1602 1591 1680 1607 2080 1719 1377 1409 1422 1615 1818 1676 1449 1703 1633 1634
353 363 606 1335 1781 1869 1664 2109 1758 1650 1924 1903 1931 1742 1715 1596 1780 1663 1647 1625 1561 1443 1463 1620 1546 1519 1325 1161 1585 1765 1823 1264 1426 1259 1336 1358 1265 1889 1901 1699 1644 1617 1599
40 124 1012 1424 1740 1792 1822 1953 1992 1990 1824 1638 1755 1757 1655 1495 1765 1552 1432 1436 1470 1392 1298 1197 1239 1080 1121 1339 1534 1555 1237 1055 1320 1519 1407 1439 868 1535 1646 1168 1336 1520 1248
30 354 972 1677 1745 1824 1915 1792 1784 1805 1725 1659 1741 1677 1670 1599 1554 1755 1636 1456 1455 1286 1393 1141 1248 1274 1281 1201 1392 963 938 1169 1211 1344 1360 1234 1428 1477 1456 1539 1560 1546 1469
164 327 647 1576 1483 1683 1801 1768 1801 1664 1710 1725 1750 1685 1610 1621 1622 1539 1600 1617 1234 1310 1286 955 1129 1265 1280 1267 1545 577 736 1033 1053 1408 1333 1259 1296 1626 1639 1650 1398 1360 1644
108 105 737 1391 1585 1644 1663 1785 1679 1710 1769 1617 1569 1494 1539 1509 1699 1572 1568 1448 1426 1329 1206 948 1088 1308 1438 1521 1173 253 530 971 811 1180 1168 1136 1429 1578 1568 1619 1748 1772 1748
35 140 505 808 1086 1427 1728 1824 1543 1474 1355 1544 1590 1829 1449 1576 1475 1383 1392 1279 1126 923 823 1020 1104 1222 1469 1416 736 832 918 861 917 891 531 848 1373 1665 1578 1548 1125 1545 1316
72 14 159 357 788 711 1152 1637 1648 1505 1340 1532 1644 1643 1576 1385 1211 1155 883 1044 942 1053 1002 947 992 1188 1228 1193 307 394 516 501 303 618 549 1125 1451 1523 1564 1598 1551 1356 1888
73 46 120 182 369 779 1119 1318 1580 1569 1558 1600 1324 1298 1209 494 983 1237 903 1209 935 680 716 755 873 1100 1016 749 488 584 865 585 556 358 681 1174 1476 1555 1552 1618 1698 1339 1439
71 60 74 145 491 779 476 1025 1029 919 710 883 661 1457 1320 662 615 484 497 639 586 656 569 384 621 951 761 691 816 961 877 194 455 385 495 1434 1525 1570 1609 1580 1722 1627 1260
66 51 90 461 408 730 476 862 779 946 845 1087 810 727 555 266 229 641 563 641 669 713 1064 1124 1187 668 386 514 428 434 326 183 430 371 681 1448 1368 1330 1345 1388 1562 1529 1520
74 49 142 143 449 711 458 691 856 575 339 311 655 783 926 991 565 657 698 354 605 731 264 340 98 292 562 934 517 520 269 273 306 328 576 742 1541 1484 1535 1336 1306 1307 1252
54 35 104 34 598 796 888 586 287 246 240 449 699 814 788 1023 763 796 655 629 631 552 371 483 161 393 43 122 359 312 97 115 573 658 664 733 546 1050 1500 1411 1489 1079 967
31 31 23 124 446 652 651 472 409 327 713 286 349 575 974 1032 1340 896 781 1015 937 229 393 403 611 124 133 78 104 148 218 101 234 606 728 564 604 532 382 767 707 896 867
24 36 12 158 445 646 931 667 732 565 291 450 693 1016 1126 1304 1265 1288 899 660 937 623 593 157 51 45 60 257 29 209 52 296 150 282 697 557 489 653 710 575 482 407 495
13 33 16 46 262 546 608 630 434 391 360 650 807 1075 1299 1176 1246 1344 820 396 619 471 642 58 31 29 51 58 115 101 91 92 106 216 170 620 926 797 501 538 750 789 738
3 17 22 13 148 384 661 516 435 461 599 744 873 1090 1424 1386 1308 811 824 1036 1062 629 376 141 39 4 54 44 15 37 66 27 103 77 97 160 28 583 957 244 262 276 401
2 6 61 48 116 411 457 471 393 427 502 602 591 1237 1451 1225 1383 1489 1140 905 937 184 545 647 234 52 32 16 19 43 57 48 39 69 29 43 0 54 652 704 576 448 185
6 2 35 121 357 265 242 262 290 322 375 535 797 1210 1452 1210 1244 1570 885 1011 993 389 760 393 71 46 53 14 6 8 12 17 40 30 31 30 1 32 17 120 500 859 282
1 0 43 270 635 360 147 248 291 365 321 374 401 1134 1454 1434 1437 769 1099 1122 740 938 975 684 425 79 29 20 60 29 17 27 52 109 20 21 63 87 174 219 60 104 311
4 4 64 428 694 603 110 51 103 348 322 305 885 1080 1330 1534 1562 1485 1136 1273 1031 1423 655 820 732 417 97 8 64 64 26 18 107 3 87 100 210 204 183 281 237 175 174
11 38 236 389 763 788 462 0 106 199 82 68 402 509 1046 1388 1542 1535 1376 1459 1086 983 1246 888 975 549 511 32 1 27 60 53 43 183 16 62 153 196 272 284 327 352 379
12 151 150 634 778 684 694 101 76 207 17 43 44 1135 971 1592 1505 1539 1347 1438 1542 1144 1203 1389 1428 812 26 541 20 13 11 29 47 152 294 154 203 109 176 435 337 323 567
92 172 325 772 1043 1006 932 265 375 39 105 3 6 613 594 957 1143 1386 1540 1591 1448 1258 1617 1453 1339 1219 981 315 372 159 162 125 282 172 162 293 228 271 281 283 373 380 417
CIN
-1 -10 -5 -0 -0 -0 -0 -6 -11 -8 -0 -0 -0 -1 -8 -6 -0 -1 -0 -0 -0 -3 -8 -3 -0 -0 -0 -0 -0 -0 -2 -1 -3 -0 -0 -0 -0 -4 -3 -4 -3 -0 -0
-40 -0 -0 -0 -0 -0 -0 -4 -11 -7 -1 -0 -2 -1 -0 -0 -0 -0 -0 -1 -0 -0 -12 -0 -0 -2 -0 -0 -0 -0 -0 -0 -3 -0 -0 -1 -0 -0 -2 -5 -9 -0 -0
-4 -2 -0 -1 -0 -0 -2 -14 -5 -0 -0 -0 -0 -0 -0 -0 -0 -0 -0 -0 -0 -0 -0 -0 -0 -0 -2 -0 -0 -0 -4 -0 -5 -7 -5 -0 -0 -0 -5 -12 -0 -0 -0
-11 -1 -1 -0 -0 -0 -3 -0 -0 -0 -0 -0 -0 -1 -0 -0 -0 -0 -0 -1 -0 -0 -0 -0 -0 -0 -0 -0 -0 -0 -4 -16 -7 -10 -3 -2 -1 -0 -0 -0 -0 -2 -0
-14 -35 -5 -2 -0 -0 -0 -0 -0 -0 -0 -2 -0 -0 -0 -0 -0 -3 -1 -0 -1 -0 -0 -0 -0 -5 -4 -0 -0 -1 -16 -16 -9 -5 -3 -3 -2 -0 -0 -2 -3 -0 -1
-74 -3 -9 -0 -0 -0 -0 -0 -0 -0 -0 -0 -0 -0 -0 -1 -3 -0 -0 -0 -0 -0 -0 -2 -0 -0 -0 -3 -0 -15 -20 -19 -4 -1 -1 -6 -2 -1 -0 -0 -2 -1 -0
-54 -17 -12 -0 -0 -0 -0 -0 -0 -0 -0 -0 -0 -0 -1 -0 -0 -1 -0 -0 -0 -0 -3 -8 -2 -3 -7 -3 -0 -29 -29 -19 -6 -1 -0 -1 -0 -0 -0 -0 -0 -0 -0
-77 -54 -6 -1 -0 -0 -0 -0 -0 -0 -0 -0 -0 -0 -0 -0 -0 -0 -0 -0 -0 -0 -3 -9 -5 -3 -3 -3 -17 -57 -41 -17 -3 -2 -1 -1 -1 -0 -0 -0 -0 -0 -0
-4 -34 -1 -1 -1 -0 -0 -0 -0 -1 -0 -0 -0 -0 -4 -0 -0 -0 -0 -0 -1 -10 -14 -8 -9 -8 -7 -12 -38 -33 -31 -25 -12 -2 -2 -1 -1 -0 -0 -0 -2 -0 -1
-155 -3 -53 -6 -1 -1 -0 -0 -0 -0 -0 -1 -0 -2 -5 -6 -11 -15 -19 -10 -11 -11 -14 -14 -15 -14 -15 -20 -58 -42 -33 -29 -3 -16 -14 -2 -0 -0 -0 -0 -0 -2 -0
-91 -3 -99 -60 -4 -1 -0 -1 -0 -0 -0 -3 -9 -29 -28 -1 -3 -2 -20 -12 -18 -29 -33 -33 -32 -21 -28 -47 -57 -58 -60 -6 -3 -2 -7 -4 -0 -0 -0 -0 -0 -0 -0
-4 -4 -4 -20 -2 -5 -1 -1 -0 -1 -2 -2 -3 -9 -22 -1 -3 -2 -27 -40 -39 -45 -42 -55 -34 -13 -7 -28 -24 -60 -24 -1 -6 -16 -32 -0 -0 -0 -0 -0 -0 -0 -0
-3 -4 -3 -4 -2 -2 -6 -1 -2 -5 -2 -4 -1 -0 -2 -7 -13 -3 -14 -13 -10 -41 -12 -20 -14 -47 -47 -41 -18 -2 -2 -3 -2 -21 -30 -0 -0 -0 -0 -0 -0 -0 -0
-5 -6 -5 -34 -11 -2 -3 -12 -6 -2 -2 -13 -1 -0 -4 -2 -1 -7 -9 -3 -6 -18 -1 -38 -21 -4 -23 -4 -5 -9 -1 -5 -0 -22 -44 -30 -0 -0 -0 -0 -0 -0 -0
-4 -2 -1 -3 -3 -14 -6 -3 -2 -2 -2 -5 -2 -0 -1 -6 -2 -1 -0 -11 -2 -4 -3 -6 -7 -1 -27 -11 -8 -4 -7 -3 -15 -25 -26 -39 -41 -5 -0 -0 -0 -0 -1
-5 -4 -3 -26 -0 -4 -7 -1 -4 -2 -0 -6 -8 -2 -1 -6 -1 -0 -2 -2 -9 -37 -7 -10 -3 -15 -2 -6 -10 -15 -3 -5 -4 -20 -14 -48 -50 -40 -45 -19 -18 -1 -1
-3 -2 -1 -8 -1 -2 -0 -2 -4 -2 -2 -2 -1 -7 -0 -9 -6 -0 -2 -0 -2 -8 -4 -8 -2 -5 -3 -13 -27 -2 -10 -2 -4 -0 -9 -24 -59 -54 -42 -46 -61 -68 -57
-2 -4 -2 -3 -2 -1 -1 -1 -1 -0 -20 -1 -5 -1 -0 -5 -10 -3 -2 -2 -1 -3 -4 -2 -13 -3 -3 -9 -16 -13 -12 -16 -7 -0 -1 -6 -19 -18 -71 -51 -34 -23 -20
-3 -3 -2 -1 -2 -1 -1 -1 -2 -4 -2 -6 -2 -6 -0 -1 -0 -21 -6 -6 -7 -1 -10 -7 -16 -21 -3 -5 -25 -14 -7 -2 -4 -6 -17 -9 -79 -14 -6 -92 -101 -94 -75
-4 -3 -33 -18 -2 -1 -1 -1 -2 -2 -2 -2 -2 -0 -9 -1 -0 -1 -4 -13 -5 -29 -21 -24 -9 -19 -27 -13 -2 -4 -1 -2 -1 -85 -114 -112 -0 -81 -35 -12 -49 -48 -117
-1 -2 -28 -5 -3 -8 -5 -2 -1 -1 -2 -0 -2 -1 -0 -1 -0 -0 -1 -9 -1 -3 -3 -3 -5 -6 -1 -4 -5 -3 -4 -2 -4 -2 -2 -3 -0 -85 -90 -91 -37 -16 -113
-2 -1 -29 -5 -3 -20 -25 -5 -2 -2 -1 -1 -2 -2 -1 -1 -0 -0 -4 -5 -23 -4 -1 -3 -2 -8 -1 -3 -16 -2 -2 -3 -3 -48 -17 -54 -106 -93 -76 -67 -185 -165 -79
-2 -3 -46 -11 -8 -25 -40 -7 -8 -1 -1 -1 -2 -1 -1 -1 -0 -0 -8 -2 -8 -8 -7 -6 -9 -4 -7 -5 -13 -43 -8 -11 -51 -1 -63 -92 -69 -95 -102 -81 -107 -170 -171
-35 -67 -28 -29 -10 -21 -25 -0 -20 -7 -12 -8 -3 -2 -1 -0 -1 -1 -1 -3 -13 -4 -2 -2 -4 -1 -11 -0 -2 -3 -26 -21 -78 -30 -106 -102 -102 -107 -87 -96 -79 -114 -139
-45 -57 -55 -11 -10 -19 -27 -24 -61 -7 -48 -11 -21 -3 -0 -2 -1 -1 -2 -0 -1 -7 -3 -1 -0 -9 -6 -13 -6 -2 -10 -3 -30 -26 -25 -34 -71 -137 -134 -97 -115 -137 -119
-49 -41 -38 -17 -9 -15 -35 -57 -28 -87 -23 -3 -12 -1 -2 -2 -1 -1 -1 -1 -1 -0 -3 -2 -0 -2 -10 -6 -4 -9 -5 -25 -8 -17 -35 -18 -40 -64 -99 -136 -144 -165 -167
Wind_Speed
29 28 30 28 29 29 29 29 28 27 28 27 22 17 14 14 8 7 8 12 13 14 14 14 14 14 14 13 13 13 12 13 14 13 15 15 14 11 7 19 25 24 24
30 26 29 28 27 25 28 28 27 27 28 27 21 17 14 7 7 15 16 15 17 18 18 17 16 16 14 14 13 12 13 13 12 15 17 15 11 13 15 17 21 24 25
24 27 28 28 26 25 27 28 28 26 26 25 24 21 16 13 21 19 18 19 18 18 18 16 16 16 15 15 14 13 12 12 10 12 11 14 12 14 18 20 23 24 24
29 26 25 26 21 24 26 27 27 27 26 25 18 23 17 24 22 22 21 20 20 19 17 16 15 15 15 15 15 14 13 13 6 10 7 14 15 15 19 21 23 25 25
25 23 21 23 24 23 14 24 20 24 26 24 25 25 24 24 23 23 22 21 21 20 18 16 13 13 16 14 9 12 7 7 13 23 5 5 15 16 19 23 24 25 24
24 18 21 23 23 18 11 13 15 16 13 26 23 20 22 24 24 23 23 23 23 24 14 5 9 10 23 13 6 8 16 14 12 6 6 7 13 16 19 20 22 24 24
21 18 21 23 19 16 14 15 14 17 20 24 22 20 25 24 23 23 24 25 25 25 22 16 14 10 13 19 20 17 19 18 11 7 9 10 14 16 19 21 22 23 24
18 21 20 21 15 15 19 16 13 14 15 16 19 21 8 20 19 19 26 25 24 24 22 18 14 15 14 15 18 19 17 13 24 8 11 13 15 18 19 21 21 23 23
19 18 20 23 17 20 15 14 15 11 10 15 15 13 16 17 18 23 27 25 23 23 23 21 19 22 21 18 17 20 19 18 25 10 18 18 18 19 19 20 22 23 23
20 19 22 23 24 24 19 13 12 8 6 7 14 16 18 21 26 27 27 25 23 23 23 23 25 27 27 27 27 26 23 21 19 24 16 18 19 17 18 20 22 23 23
17 22 25 24 21 14 14 14 10 2 2 5 18 26 27 25 24 25 3 24 23 23 23 22 24 26 28 28 27 24 19 13 21 17 18 20 21 19 17 20 22 22 23
19 22 26 20 9 30 21 9 16 28 27 22 17 23 22 9 9 20 24 23 23 24 23 22 21 22 20 18 24 21 16 10 17 17 19 23 23 23 17 22 22 22 23
22 21 14 9 20 31 5 29 29 28 27 6 20 14 18 18 22 23 22 22 22 17 20 20 17 20 23 18 18 13 18 20 16 14 22 20 22 21 20 22 22 22 21
21 20 20 3 21 13 18 30 28 24 18 23 24 16 21 20 19 13 15 18 9 17 17 11 14 10 20 17 12 13 13 10 14 22 24 22 22 20 21 21 21 21 21
20 17 4 12 28 25 27 26 15 10 26 14 19 23 17 19 11 10 13 17 17 12 10 10 13 13 15 16 11 11 10 12 18 22 23 22 21 20 20 20 20 20 19
22 16 6 25 29 24 25 22 12 24 14 17 24 14 17 12 11 13 16 11 15 14 20 19 10 15 16 15 13 11 14 9 12 23 23 22 22 21 19 19 19 18 18
22 13 6 32 31 28 25 25 24 23 25 8 6 19 20 17 14 14 11 15 16 11 16 18 19 12 11 3 14 15 17 12 10 14 21 22 21 20 20 19 18 17 17
16 11 7 34 33 32 26 29 27 27 25 21 23 23 21 17 18 18 18 15 16 19 21 17 7 13 14 5 7 17 16 9 14 17 12 16 20 19 19 18 17 16 15
18 14 21 33 32 33 23 30 27 19 26 13 24 23 22 20 19 18 15 14 17 18 12 14 19 20 17 13 23 20 18 17 19 6 14 15 13 19 18 17 17 16 15
16 11 27 33 22 29 28 29 28 25 26 25 24 22 22 21 19 17 16 16 18 18 10 16 17 7 17 9 9 8 20 15 14 17 18 19 16 17 19 16 17 16 16
18 14 12 34 11 26 33 32 31 30 28 26 25 18 21 20 20 18 17 18 18 19 14 14 19 18 18 10 22 20 12 18 18 17 16 16 15 14 14 15 16 17 17
21 17 12 22 16 35 33 33 30 29 28 26 25 24 23 22 20 20 18 19 14 18 19 18 18 20 19 20 18 19 17 16 19 16 15 16 14 14 17 17 15 17 16
21 21 16 23 16 10 35 32 31 30 26 27 26 24 25 23 22 19 20 16 17 17 21 20 20 18 14 20 15 12 15 16 18 18 17 17 14 17 15 18 17 19 18
21 18 13 21 21 13 39 18 34 32 31 29 27 26 26 25 23 22 21 20 19 18 8 20 20 18 18 19 19 18 17 11 14 16 18 17 17 18 18 17 20 19 19
19 18 15 17 25 22 14 37 16 36 33 30 29 11 24 25 25 24 22 21 20 20 20 18 19 21 20 17 20 20 19 19 19 16 16 21 19 18 19 19 17 18 20
19 18 16 16 18 22 14 40 23 36 35 32 31 27 28 25 25 24 22 21 20 20 19 21 20 21 20 18 15 18 17 18 19 18 16 17 16 19 18 19 19 17 17
Wind_Direction
123 117 130 116 119 116 125 120 117 106 113 139 162 179 189 191 226 293 326 358 3 6 4 2 3 2 4 4 4 2 1 13 28 26 30 29 22 4 326 35 64 45 47
119 113 124 117 111 102 116 129 131 120 120 138 165 179 189 233 322 31 26 18 29 28 23 25 19 17 15 19 13 6 16 25 27 41 50 32 6 7 17 23 32 49 52
107 112 115 116 106 104 112 129 128 142 143 144 148 161 183 183 67 51 43 42 35 26 30 23 18 25 19 17 16 17 17 24 19 35 28 35 14 19 32 37 48 53 52
116 110 104 108 91 99 109 143 129 131 134 142 177 149 140 121 81 70 58 52 48 36 29 22 21 21 22 16 25 20 28 43 347 226 298 190 31 27 38 47 55 61 58
107 103 94 100 101 99 70 135 85 99 115 95 115 105 99 99 95 84 67 60 60 45 36 26 12 14 27 12 351 7 341 236 206 159 326 291 34 34 43 56 61 56 49
108 91 96 99 99 85 63 62 64 65 54 111 91 74 85 109 98 85 77 89 81 85 22 262 201 190 104 173 313 220 179 185 191 233 357 330 16 30 38 42 43 50 54
103 93 98 103 89 81 73 70 65 72 80 96 83 74 110 96 80 76 94 95 104 113 135 159 169 182 167 154 155 170 166 167 187 211 9 10 22 30 36 43 50 50 53
94 103 97 99 81 78 89 76 61 62 64 65 72 77 13 62 43 41 99 105 121 126 133 148 166 164 161 160 157 165 174 188 84 8 17 14 23 36 45 48 49 54 52
100 96 100 106 90 94 79 73 70 55 49 63 58 46 49 44 45 63 98 109 130 132 132 139 147 144 146 153 159 158 162 164 116 26 45 40 38 43 46 47 53 59 61
106 101 108 109 112 112 93 74 64 48 37 35 58 60 61 66 89 103 98 115 129 130 131 130 127 118 108 99 120 133 142 147 56 76 25 38 44 35 37 52 61 67 62
104 113 122 115 107 88 83 80 65 338 358 63 108 123 120 95 95 99 145 122 125 130 130 136 134 128 118 105 111 133 158 181 66 33 37 50 61 51 38 50 65 67 67
115 115 128 109 84 152 105 137 91 134 133 152 91 150 155 52 29 66 118 127 125 124 124 139 144 135 166 150 107 137 170 214 36 31 41 88 96 105 78 72 73 77 89
123 118 102 92 143 157 77 154 158 158 153 26 185 207 69 70 112 118 116 125 125 156 150 135 150 130 104 153 146 179 138 156 46 19 64 135 123 139 142 118 98 103 103
125 120 117 129 133 213 117 160 174 139 203 171 162 197 162 159 169 25 185 138 248 156 163 244 165 207 132 146 180 179 184 206 176 73 105 127 124 136 123 116 113 115 109
126 121 195 158 182 198 190 188 216 232 168 95 134 163 134 177 225 249 207 168 176 227 162 175 187 182 176 173 204 201 214 198 45 87 113 116 129 133 132 122 114 112 112
133 126 202 201 193 201 198 203 229 191 222 134 138 81 205 244 281 23 186 292 207 135 137 144 234 181 171 190 197 214 188 221 196 103 110 123 122 129 136 135 127 121 117
137 130 160 193 192 196 200 196 196 198 172 186 123 127 172 189 233 229 278 209 207 280 177 164 168 218 221 352 198 189 171 201 222 185 123 122 126 128 123 134 135 130 127
138 141 187 191 191 185 203 189 189 175 189 126 145 142 169 199 187 173 173 206 196 169 137 173 19 218 199 290 265 184 177 331 192 172 215 162 126 124 127 124 136 143 144
143 144 221 200 194 164 213 186 193 222 187 161 164 141 153 137 178 179 204 210 189 180 233 196 138 168 183 88 110 158 171 170 163 328 197 191 206 118 128 121 124 143 147
148 156 219 205 221 196 151 197 194 192 188 185 179 140 157 159 173 195 191 196 193 190 252 208 183 14 197 279 272 284 154 200 211 168 150 135 152 155 107 129 141 151 151
153 157 213 211 215 203 181 186 188 176 177 178 178 219 188 176 169 189 185 182 180 176 214 206 173 191 184 262 131 155 245 176 169 177 177 170 175 173 176 154 157 150 146
160 159 201 227 226 183 204 198 197 195 181 185 186 181 185 178 174 179 190 174 204 181 185 187 198 168 166 168 188 158 145 189 160 182 175 183 204 195 152 146 161 154 150
165 164 170 229 226 200 201 213 209 204 211 197 188 188 184 178 176 189 176 204 193 198 155 171 180 197 194 168 221 246 206 168 117 122 147 174 189 173 180 144 143 133 141
171 173 194 228 230 221 203 161 208 207 199 196 197 189 172 183 175 174 176 182 184 196 216 161 160 192 175 125 132 142 209 273 214 165 157 174 179 165 146 163 130 143 145
179 179 195 223 232 233 191 214 238 208 203 196 199 259 215 190 187 179 174 168 163 175 175 193 178 176 169 196 147 133 150 142 153 175 170 134 152 163 152 146 157 145 139
189 188 195 212 223 231 201 192 238 212 209 209 207 215 189 171 177 181 162 165 159 173 133 157 163 161 185 202 225 202 115 178 159 168 179 153 177 136 159 150 137 144 158